Weather History for Charlottetown, PE

Change the Weather History Date:

Monday, November 7, 2011

  Actual Average Record
Temperature  
Mean Temperature 43 °F -  
Max Temperature 51 °F 40 °F 60 °F (2008)
Min Temperature 35 °F 27 °F 18 °F (2012)
Degree Days  
Heating Degree Days 22    
Moisture  
Dew Point 32 °F    
Average Humidity 63    
Maximum Humidity 87    
Minimum Humidity 34    
Precipitation  
Precipitation 0.00 in 0.16 in - ()
Sea Level Pressure  
Sea Level Pressure 30.11 in    
Wind  
Wind Speed 7 mph ()    
Max Wind Speed 13 mph    
Max Gust Speed 18 mph    
Visibility 15.0 miles    
Events      
Averages and records for this station are not official NWS values.
T = Trace of Precipitation, MM = Missing Value Source: Averaged Metar Reports

Daily Weather History Graph

Daily Weather History Graph

Search for Another Location

Airport:

Trip Planner

Search our weather history database for the weather conditions in past years. The results will help you decide how hot, cold, wet, or windy it might be!

Date:

Astronomy

Nov. 07, 2011 Rise Set
Actual Time 7:01 AM AST 4:49 PM AST
Civil Twilight 6:29 AM AST 5:21 PM AST
Nautical Twilight 5:54 AM AST 5:57 PM AST
Astronomical Twilight 5:18 AM AST 6:32 PM AST
Moon 3:05 PM AST (11/7) 3:52 AM AST (11/7)
Length of Visible Light 10h 51m
Length of Day
9h 48m
Waxing Gibbous, 91% of the Moon is Illuminated
Nov 7
Waxing Gibbous
Nov 10
Full
Nov 18
Last Quarter
Nov 25
New
Dec 2
First Quarter

Hourly Weather History & Observations

Time (AST) Temp. Windchill Dew Point Humidity Pressure Visibility Wind Dir Wind Speed Gust Speed Precip Events Conditions
12:00 AM 41.0 °F 35.2 °F 26.6 °F 57% 30.16 in 15.0 mi West 9.2 mph - N/A   Partly Cloudy
1:00 AM 41.0 °F 35.2 °F 26.6 °F 57% 30.17 in 15.0 mi West 9.2 mph - N/A   Partly Cloudy
2:00 AM 41 °F - 26 °F 43% 30.16 in 15 mi West 9.2 mph - -   Scattered Clouds
3:00 AM 39.2 °F 34.2 °F 26.6 °F 61% 30.17 in 15.0 mi West 6.9 mph - N/A   Partly Cloudy
4:00 AM 39.2 °F 33.0 °F 28.4 °F 65% 30.17 in 15.0 mi West 9.2 mph - N/A   Partly Cloudy
5:00 AM 39.2 °F 33.6 °F 28.4 °F 65% 30.17 in 15.0 mi West 8.1 mph - N/A   Partly Cloudy
6:00 AM 39.2 °F 34.2 °F 28.4 °F 65% 30.18 in 15.0 mi WNW 6.9 mph - N/A   Mostly Cloudy
7:00 AM 35.6 °F 31.7 °F 28.4 °F 75% 30.18 in 15.0 mi West 4.6 mph - N/A   Mostly Cloudy
8:00 AM 39 °F - 30 °F 60% 30.19 in 15 mi WSW 2.3 mph - -   Scattered Clouds
8:00 AM 39.2 °F - 30.2 °F 70% 30.19 in 15.0 mi WSW 2.3 mph - N/A   Mostly Cloudy
9:00 AM 41.0 °F - 32.0 °F 70% 30.19 in 15.0 mi WSW 2.3 mph - N/A   Mostly Cloudy
10:00 AM 42.8 °F 38.6 °F 33.8 °F 70% 30.17 in 15.0 mi SW 6.9 mph - N/A   Mostly Cloudy
11:00 AM 46.4 °F 42.4 °F 35.6 °F 66% 30.16 in 15.0 mi SW 8.1 mph - N/A   Mostly Cloudy
12:00 PM 48.2 °F - 32.0 °F 54% 30.15 in 15.0 mi WSW 5.8 mph - N/A   Mostly Cloudy
1:00 PM 50.0 °F - 26.6 °F 40% 30.12 in 15.0 mi SW 11.5 mph - N/A   Mostly Cloudy
2:00 PM 50 °F - 30 °F 34% 30.09 in 15 mi SSW 9.2 mph - -   Scattered Clouds
2:00 PM 50.0 °F - 30.2 °F 47% 30.09 in 15.0 mi SSW 11.5 mph - N/A   Mostly Cloudy
3:00 PM 48.2 °F - 30.2 °F 50% 30.08 in 15.0 mi SSW 8.1 mph - N/A   Mostly Cloudy
4:00 PM 48.2 °F - 32.0 °F 54% 30.05 in 15.0 mi South 9.2 mph - N/A   Mostly Cloudy
5:00 PM 46.4 °F 41.5 °F 33.8 °F 62% 30.04 in 15.0 mi SSW 10.4 mph - N/A   Mostly Cloudy
6:00 PM 44.6 °F 40.7 °F 39.2 °F 81% 30.03 in 15.0 mi SSW 6.9 mph - N/A   Scattered Clouds
7:00 PM 46.4 °F 42.9 °F 35.6 °F 66% 30.01 in 15.0 mi SW 6.9 mph - N/A   Scattered Clouds
8:00 PM 47 °F - 39 °F 65% 30.01 in 15 mi WSW 12.7 mph - -   Scattered Clouds
8:00 PM 46.4 °F 40.7 °F 39.2 °F 76% 30.01 in 15.0 mi WSW 12.7 mph - N/A   Scattered Clouds
9:00 PM 46.4 °F 40.7 °F 42.8 °F 87% 30.00 in 15.0 mi WSW 12.7 mph - N/A   Partly Cloudy
10:00 PM 46.4 °F 40.7 °F 42.8 °F 87% 29.99 in 15.0 mi WSW 12.7 mph - N/A   Scattered Clouds
11:00 PM 46.4 °F 41.1 °F 42.8 °F 87% 29.97 in 15.0 mi WSW 11.5 mph 18.4 mph N/A   Scattered Clouds